Tracking 28790 objects as of 18-Apr-2024
HD Live streaming from Space Station
objects crossing your sky now

METEOR 2-11 DEB

Track METEOR 2-11 DEB now!
10-day predictions


NORAD ID: 40708
Int'l Code: 1984-072K
Perigee: 912.7 km
Apogee: 938.5 km
Inclination: 82.5 °
Period: 103.4 minutes
Semi major axis: 7296 km
RCS: Unknown
Launch date: July 5, 1984
Source: Commonwealth of Independent States (former USSR) (CIS)
Launch site: PLESETSK MISSILE AND SPACE COMPLEX (PKMTR)

Note: This is SATELLITE DEBRIS
Your satellite tracking list
Your tracking list is empty




NASA's NSSDC Master Catalog

Two Line Element Set (TLE):
1 40708U 84072K   24107.79172227  .00005643  00000-0  43345-2 0  9990
2 40708  82.5105 289.3166 0017657  27.1726 333.0359 13.92907151463612
Source of the keplerian elements: AFSPC